Location: Paris
(48.6709°N, 2.3750°E)
Time: 05:56:54
(UTC+02:00)

NOAA 18 - Visible Passes

Search period start: 28 June 2022 00:00
Search period end: 08 July 2022 00:00
Orbit: 840 x 859 km, 98.9° (Epoch: 27 June)

Date Brightness Start Highest point End Pass type
(mag) Time Alt. Az. Time Alt. Az. Time Alt. Az.
28 Jun 5.4 23:33:14 12° S 23:38:21 70° WSW 23:43:54 10° NNW visible
29 Jun 7.6 01:18:41 10° W 01:20:02 11° W 01:21:24 10° WNW visible
29 Jun 5.3 23:21:02 11° SSE 23:26:18 85° WSW 23:31:53 10° NNW visible
30 Jun 7.5 01:04:58 10° WSW 01:07:48 14° W 01:10:38 10° NW visible
30 Jun 5.3 23:08:51 10° SSE 23:14:15 78° ENE 23:19:50 10° NNW visible
01 Jul 7.3 00:51:56 10° SW 00:55:34 18° W 00:59:14 10° NW visible
01 Jul 5.4 22:56:48 10° SSE 23:02:14 64° ENE 23:07:44 10° N visible
02 Jul 7.1 00:39:09 10° SW 00:43:22 22° W 00:47:37 10° NW visible
02 Jul 5.6 22:44:56 10° SE 22:50:15 52° ENE 22:55:37 10° N visible
03 Jul 6.8 00:26:32 10° SSW 00:31:11 27° W 00:35:53 10° NW visible
03 Jul 5.9 22:33:08 10° SE 22:38:16 42° ENE 22:43:29 10° N visible
04 Jul 6.5 00:14:16 11° SSW 00:19:01 34° W 00:24:03 10° NNW visible
05 Jul 6.1 00:02:05 12° SSW 00:06:54 42° W 00:12:10 10° NNW visible
05 Jul 5.8 23:49:54 13° S 23:54:47 52° W 00:00:13 10° NNW visible
06 Jul 5.5 23:37:43 13° S 23:42:42 65° WSW 23:48:14 10° NNW visible
07 Jul 5.3 23:25:32 12° SSE 23:30:38 80° WSW 23:36:14 10° NNW visible
